Regional Weather Roundup
Issued by NWS Burlington, VT

Home | Current Version | Previous Version | Text Only | Print | Product List | Glossary On
Versions: 1 2 3 4 5 6 7 8 9 10 11 12 13 14 15 16 17 18 19 20 21 22 23 24 25 26 27 28 29 30 31 32 33 34 35 36 37 38 39 40 41 42 43 44 45 46 47 48 49 50
000
ASUS41 KBTV 271510
RWRBTV
VERMONT REGIONAL WEATHER ROUNDUP
NATIONAL WEATHER SERVICE BURLINGTON VT
1000 AM EST SAT DEC 27 2014

NOTE: "FAIR" INDICATES FEW OR NO CLOUDS BELOW 12,000 FEET WITH NO
SIGNIFICANT WEATHER AND/OR OBSTRUCTIONS TO VISIBILITY.

* THESE REPORTS ARE NOT UNDER NWS QUALITY CONTROL AND/OR DO NOT
  REPORT WEATHER SUCH AS PRECIPITATION AND FOG.

VTZ001>019-271600-
_____VERMONT_____


CITY           SKY/WX    TMP DP  RH WIND       PRES   REMARKS
BURLINGTON     CLOUDY    40  29  64 S6        30.18S
MONTPELIER     CLOUDY    38  30  73 SE3       30.19R
MORRISVILLE    CLOUDY    40  31  70 CALM      30.17S
ST. JOHNSBURY*   N/A     36  31  82 MISG      30.15S
LYNDONVILLE*   CLOUDY    39  28  65 W7        30.16S
MIDDLEBURY*    PTSUNNY   40  32  70 S5        30.18S
RUTLAND*       CLOUDY    39  28  65 SW3       30.18S
SPRINGFIELD    CLOUDY    31  29  92 CALM      30.21R
HIGHGATE*      CLOUDY    39  32  75 CALM      30.17S
NEWPORT*       CLOUDY    35  31  85 CALM      30.16S
BENNINGTON     CLOUDY    38  33  82 CALM      30.21R

_____LAKE CHAMPLAIN_____


CITY           SKY/WX    TMP DP  RH WIND       PRES   REMARKS
COLCHESTER RF*   N/A     39  34  81 SW14        N/A

$$

NYZ007-026>031-035-052-083-271600-
_____NORTHERN NEW YORK_____


CITY           SKY/WX    TMP DP  RH WIND       PRES   REMARKS
PLATTSBURGH    CLOUDY    40  33  76 CALM      30.17S
SARANAC LAKE   CLOUDY    36  33  89 SW5       30.12R
MASSENA        CLOUDY    39  34  82 S6        30.17S
POTSDAM*       CLOUDY    39  37  93 SW6       30.17R
WATERTOWN      CLOUDY    43  34  70 S5        30.18R
FT DRUM        CLOUDY    40  33  78 SW7       30.17R
ALBANY         CLOUDY    36  30  79 CALM      30.24R
GLENS FALLS    CLOUDY    34  29  82 CALM      30.22R

$$
NHZ002-005-011-271600-
_____NEW HAMPSHIRE_____


CITY           SKY/WX    TMP DP  RH WIND       PRES   REMARKS
LEBANON        CLOUDY    34  29  82 CALM      30.19R
KEENE          SUNNY     34  30  86 CALM      30.21S
PLYMOUTH       FAIR      39  34  84 CALM      30.16S
WHITEFIELD     PTSUNNY   40  28  62 SW7       30.15S

$$

_____REGIONAL QUEBEC LOCATIONS_____


CITY           SKY/WX    TMP DP  RH WIND       PRES   REMARKS
MONTREAL       CLOUDY    37  34  87 VRB2      30.17S
QUEBEC CITY    MOSUNNY   34  28  80 SW12      30.12S
SHERBROOKE     CLOUDY    36  32  87 W6        30.14S

_____REGIONAL ONTARIO LOCATIONS_____


CITY           SKY/WX    TMP DP  RH WIND       PRES   REMARKS
OTTAWA         CLOUDY    37  34  87 S3        30.15R

______KEY______
VSB  - VISIBILITY IN MILES
WCI  - WIND CHILL INDEX
HX   - HEAT INDEX
$$



USA.gov is the U.S. government's official web portal to all federal, state and local government web resources and services.